Simultaneous Nadir Overpasses (SNOs) Predictions

Prediction of SNOs between GOES-17 and METOP-C Satellite Orbit:

Table of predicted SNOs for the next 14.0 days since TLE Epoch: 12/17/2023
Index Date Time (GOES-17) GOES-17 Lat,Lon METOP-C Lat,Lon Distance(km) Time Diff (sec)
1 12/18/2023 04:30:42 -0.03,-104.67 -0.09,-104.94 31.22 80
2 12/20/2023 16:28:55 0.03,-104.69 -0.03,-104.51 20.31 80
3 12/23/2023 04:24:34 -0.03,-104.69 0.09,-104.10 66.59 80
4 12/24/2023 16:43:26 0.01,-104.70 0.91,-108.67 452.51 80
5 12/25/2023 16:25:26 0.01,-104.70 -0.23,-103.67 117.20 80
6 12/27/2023 04:44:26 -0.01,-104.70 -0.78,-108.27 405.79 80
7 12/28/2023 04:21:05 -0.02,-104.70 0.29,-103.26 163.93 80
8 12/29/2023 16:39:57 0.03,-104.71 0.74,-107.81 354.46 80
9 12/30/2023 16:21:57 0.03,-104.71 -0.40,-102.82 215.76 80
